KD5YCY Weather Reports


Display with metric or nautical units.
time (UTC)temp
F
wind
direction
speed
MPH
gust
MPH
rain 1hr
in
rain 24hr
in
rain mn
in
humidity
%
barometer
mb
20260506091419 52 337 6.0 10.0 0.00 0.00 0.00 86 941.2
20260506091318 52 347 6.0 10.0 0.00 0.00 0.00 86 941.2
20260506091213 52 355 6.0 10.0 0.00 0.00 0.00 86 941.2
20260506091118 52 24 6.0 10.0 0.00 0.00 0.00 86 941.2
20260506091100 52 350 6.0 10.0 0.00 0.00 0.00 86 941.2
20260506090912 52 347 6.0 10.0 0.00 0.00 0.00 86 941.2
20260506090812 52 329 6.0 10.0 0.00 0.00 0.00 86 941.1
20260506090706 52 5 6.0 11.0 0.00 0.00 0.00 86 941.1
20260506090607 52 323 6.0 11.0 0.00 0.00 0.00 85 941.1
20260506090507 52 338 6.0 11.0 0.00 0.00 0.00 85 941.1
20260506090406 52 336 6.0 11.0 0.00 0.00 0.00 85 941.1
20260506090306 52 344 6.0 11.0 0.00 0.00 0.00 85 941.1
20260506090201 53 331 6.0 11.0 0.00 0.00 0.00 85 941.0
20260506090000 53 323 7.0 12.0 0.00 0.00 0.00 85 941.0
20260506085900 53 347 7.0 12.0 0.00 0.00 0.00 85 941.0
20260506085800 53 349 7.0 12.0 0.00 0.00 0.00 85 941.0
20260506085654 53 331 7.0 12.0 0.00 0.00 0.00 85 941.0
20260506085555 53 0 6.0 12.0 0.00 0.00 0.00 85 941.0
20260506085455 53 319 6.0 12.0 0.00 0.00 0.00 85 941.0
20260506085355 53 336 6.0 12.0 0.00 0.00 0.00 85 941.0
20260506085254 53 333 6.0 12.0 0.00 0.00 0.00 85 941.0
20260506085149 53 347 5.0 12.0 0.00 0.00 0.00 85 941.0
20260506085048 53 329 5.0 11.0 0.00 0.00 0.00 85 941.0
20260506084948 53 334 5.0 11.0 0.00 0.00 0.00 85 941.0
20260506084848 53 355 5.0 10.0 0.00 0.00 0.00 85 941.1
20260506084749 53 351 5.0 10.0 0.00 0.00 0.00 85 941.0
20260506084643 53 336 5.0 10.0 0.00 0.00 0.00 85 941.0
20260506084541 53 355 5.0 10.0 0.00 0.00 0.00 85 941.0
20260506084443 53 355 5.0 10.0 0.00 0.00 0.00 85 941.0
20260506084342 53 340 6.0 10.0 0.00 0.00 0.00 85 941.0
20260506084242 53 11 6.0 12.0 0.00 0.00 0.00 85 941.0
20260506084137 53 325 6.0 12.0 0.00 0.00 0.00 85 941.0
20260506084038 53 10 6.0 12.0 0.00 0.00 0.00 85 941.0
20260506083937 53 329 6.0 12.0 0.00 0.00 0.00 85 941.1
20260506083838 53 339 6.0 12.0 0.00 0.00 0.00 85 941.2
20260506083736 53 338 6.0 12.0 0.00 0.00 0.00 85 941.2
20260506083631 53 350 7.0 12.0 0.00 0.00 0.00 85 941.2
20260506083530 53 339 7.0 12.0 0.00 0.00 0.00 85 941.1
20260506083431 53 9 7.0 12.0 0.00 0.00 0.00 85 941.1
20260506083331 53 346 6.0 11.0 0.00 0.00 0.00 85 941.1
20260506083230 53 348 6.0 11.0 0.00 0.00 0.00 85 941.0
20260506083124 53 298 6.0 11.0 0.00 0.00 0.00 85 941.0
20260506083024 53 348 6.0 11.0 0.00 0.00 0.00 85 941.0
20260506082924 53 331 6.0 11.0 0.00 0.00 0.00 85 941.0
20260506082824 53 350 7.0 12.0 0.00 0.00 0.00 85 941.0
20260506082724 53 355 7.0 15.0 0.00 0.00 0.00 85 940.9
20260506082619 53 334 7.0 15.0 0.00 0.00 0.00 85 940.9
20260506082517 53 349 7.0 15.0 0.00 0.00 0.00 85 940.9
20260506082418 53 342 8.0 15.0 0.00 0.00 0.00 85 940.9
20260506082318 53 324 8.0 15.0 0.00 0.00 0.00 85 940.9
20260506082218 53 11 8.0 15.0 0.00 0.00 0.00 85 941.0
20260506082113 53 9 8.0 15.0 0.00 0.00 0.00 85 941.0
20260506082011 53 350 8.0 15.0 0.00 0.00 0.00 85 941.0
20260506081913 53 0 8.0 15.0 0.00 0.00 0.00 85 941.0
20260506081813 53 330 8.0 15.0 0.00 0.00 0.00 85 940.9
20260506081712 53 346 8.0 15.0 0.00 0.00 0.00 85 940.9
20260506081607 53 18 8.0 15.0 0.00 0.00 0.00 85 940.9
20260506081514 53 0 7.0 15.0 0.00 0.00 0.00 84 940.9
20260506081456 53 342 7.0 15.0 0.00 0.00 0.00 84 941.0
20260506081308 54 355 6.0 13.0 0.00 0.00 0.00 84 941.0
20260506081207 54 350 6.0 11.0 0.00 0.00 0.00 84 941.0
20260506081101 54 340 6.0 11.0 0.00 0.00 0.00 84 941.0
20260506081000 54 349 6.0 11.0 0.00 0.00 0.00 84 940.9
20260506080900 54 344 6.0 11.0 0.00 0.00 0.00 84 940.9
20260506080800 54 5 5.0 11.0 0.00 0.00 0.00 84 940.9
20260506080700 54 351 5.0 11.0 0.00 0.00 0.00 84 940.8
20260506080554 54 341 5.0 11.0 0.00 0.00 0.00 84 940.9
20260506080453 54 334 6.0 11.0 0.00 0.00 0.00 84 940.9
20260506080355 54 25 6.0 11.0 0.00 0.00 0.00 84 940.8
20260506080253 54 343 6.0 11.0 0.00 0.00 0.00 84 940.9
20260506080154 54 344 6.0 11.0 0.00 0.00 0.00 84 940.9
20260506073518 55 351 5.0 9.0 0.00 0.00 0.00 83 941.2
20260506073417 55 326 5.0 10.0 0.00 0.00 0.00 83 941.2
20260506073318 55 355 5.0 10.0 0.00 0.00 0.00 82 941.2
20260506073217 55 340 5.0 10.0 0.00 0.00 0.00 82 941.2
20260506073118 55 0 5.0 10.0 0.00 0.00 0.00 82 941.2
20260506073011 55 348 5.0 10.0 0.00 0.00 0.00 82 941.3
20260506072918 55 355 5.0 10.0 0.00 0.00 0.00 82 941.2
20260506072902 55 17 5.0 10.0 0.00 0.00 0.00 82 941.1
20260506072713 55 342 5.0 10.0 0.00 0.00 0.00 82 941.0
20260506072612 55 0 5.0 10.0 0.00 0.00 0.00 82 941.0
20260506072506 55 0 5.0 12.0 0.00 0.00 0.00 82 941.0
20260506072406 55 30 6.0 13.0 0.00 0.00 0.00 82 941.1
20260506072306 55 32 6.0 13.0 0.00 0.00 0.00 82 941.1
20260506072206 55 21 6.0 13.0 0.00 0.00 0.00 82 941.0
20260506072106 55 11 6.0 13.0 0.00 0.00 0.00 82 941.0
20260506072002 55 22 6.0 13.0 0.00 0.00 0.00 82 941.0
20260506071902 55 24 6.0 13.0 0.00 0.00 0.00 82 941.1
20260506071801 55 40 6.0 13.0 0.00 0.00 0.00 82 941.1
20260506071702 55 49 7.0 13.0 0.00 0.00 0.00 82 941.1
20260506071600 55 10 6.0 13.0 0.00 0.00 0.00 81 941.1
20260506071454 55 348 6.0 13.0 0.00 0.00 0.00 82 941.2
20260506071354 55 348 6.0 11.0 0.00 0.00 0.00 82 941.2
20260506071255 55 350 6.0 11.0 0.00 0.00 0.00 82 941.2
20260506071153 55 9 6.0 11.0 0.00 0.00 0.00 81 941.1
20260506071054 55 351 5.0 11.0 0.00 0.00 0.00 81 941.1
20260506070948 56 13 5.0 10.0 0.00 0.00 0.00 81 941.2
20260506070849 55 327 5.0 10.0 0.00 0.00 0.00 81 941.1
20260506070750 56 345 5.0 10.0 0.00 0.00 0.00 81 941.0
20260506070648 56 9 5.0 10.0 0.00 0.00 0.00 81 941.0
20260506070548 56 21 5.0 10.0 0.00 0.00 0.00 81 940.9
20260506070444 56 331 5.0 10.0 0.00 0.00 0.00 81 940.9
20260506070405 56 16 5.0 10.0 0.00 0.00 0.00 81 940.9
20260506070243 56 42 5.0 10.0 0.00 0.00 0.00 81 940.9
20260506070144 56 17 6.0 10.0 0.00 0.00 0.00 81 940.9
20260506062500 57 15 6.0 12.0 0.00 0.00 0.00 79 941.0
20260506062354 57 55 7.0 12.0 0.00 0.00 0.00 78 940.9
20260506062253 57 0 7.0 12.0 0.00 0.00 0.00 78 940.8
20260506062153 57 19 7.0 13.0 0.00 0.00 0.00 78 940.8
20260506062055 58 34 7.0 13.0 0.00 0.00 0.00 78 940.8
20260506061954 57 23 7.0 13.0 0.00 0.00 0.00 78 940.8
20260506061848 58 21 7.0 13.0 0.00 0.00 0.00 78 940.7
20260506061750 58 340 7.0 13.0 0.00 0.00 0.00 78 940.7
20260506061648 58 333 7.0 13.0 0.00 0.00 0.00 78 940.6
20260506061548 58 20 6.0 13.0 0.00 0.00 0.00 77 940.6
20260506061448 58 334 6.0 13.0 0.00 0.00 0.00 77 940.6
20260506061344 58 329 6.0 13.0 0.00 0.00 0.00 77 940.6
20260506061248 58 345 6.0 13.0 0.00 0.00 0.00 77 940.6
20260506061146 58 341 6.0 12.0 0.00 0.00 0.00 77 940.7
20260506061044 58 23 6.0 12.0 0.00 0.00 0.00 77 940.7
20260506060946 58 9 6.0 12.0 0.00 0.00 0.00 77 940.7
20260506060843 58 18 6.0 12.0 0.00 0.00 0.00 77 940.8
20260506060642 58 355 6.0 12.0 0.00 0.00 0.00 77 940.9
20260506060626 58 38 6.0 12.0 0.00 0.00 0.00 77 940.9
20260506060443 58 36 6.0 12.0 0.00 0.00 0.00 77 940.8
20260506060403 58 15 6.0 12.0 0.00 0.00 0.00 77 940.8
20260506060347 58 30 6.0 12.0 0.00 0.00 0.00 76 940.7
20260506060143 58 350 6.0 12.0 0.00 0.00 0.00 76 940.7
20260506051349 61 60 4.0 8.0 0.00 0.00 0.00 71 939.8
20260506051251 61 11 4.0 11.0 0.00 0.00 0.00 71 939.8
20260506051149 61 5 5.0 11.0 0.00 0.00 0.00 71 939.8
20260506051045 61 17 5.0 11.0 0.00 0.00 0.00 71 939.8
20260506050947 62 22 5.0 11.0 0.00 0.00 0.00 71 939.8
20260506050847 62 43 5.0 11.0 0.00 0.00 0.00 70 939.7
20260506050745 62 0 6.0 11.0 0.00 0.00 0.00 70 939.7
20260506050643 62 19 6.0 11.0 0.00 0.00 0.00 70 939.7
20260506050537 62 27 6.0 11.0 0.00 0.00 0.00 70 939.7
20260506050435 62 60 6.0 11.0 0.00 0.00 0.00 70 939.6
20260506050337 62 9 6.0 11.0 0.00 0.00 0.00 69 939.6
20260506050237 62 34 6.0 11.0 0.00 0.00 0.00 69 939.7
20260506050136 62 36 6.0 11.0 0.00 0.00 0.00 69 939.7
20260506045124 63 17 6.0 12.0 0.00 0.00 0.00 68 939.8
20260506045020 63 20 6.0 12.0 0.00 0.00 0.00 68 939.8
20260506044920 63 15 6.0 12.0 0.00 0.00 0.00 68 939.8
20260506044819 63 44 5.0 12.0 0.00 0.00 0.00 68 939.8
20260506044719 63 14 5.0 12.0 0.00 0.00 0.00 68 939.8
20260506044620 63 38 5.0 12.0 0.00 0.00 0.00 68 939.8
20260506044519 64 52 5.0 10.0 0.00 0.00 0.00 68 939.8
20260506044420 64 30 5.0 9.0 0.00 0.00 0.00 68 939.7
20260506044320 64 339 5.0 9.0 0.00 0.00 0.00 69 939.8
20260506044221 64 31 5.0 9.0 0.00 0.00 0.00 69 939.7
20260506044120 64 44 5.0 9.0 0.00 0.00 0.00 69 939.8
20260506044019 64 72 5.0 9.0 0.00 0.00 0.00 69 939.8
20260506043921 64 78 5.0 9.0 0.00 0.00 0.00 68 939.8
20260506043819 64 49 5.0 9.0 0.00 0.00 0.00 69 939.8
20260506043720 64 59 5.0 9.0 0.00 0.00 0.00 68 939.7
20260506043619 64 74 5.0 9.0 0.00 0.00 0.00 68 939.8
20260506043519 64 78 5.0 10.0 0.00 0.00 0.00 68 939.8
20260506043419 65 36 5.0 10.0 0.00 0.00 0.00 68 939.7
20260506043318 65 69 5.0 10.0 0.00 0.00 0.00 67 939.7
20260506043217 65 60 5.0 10.0 0.00 0.00 0.00 67 939.7
20260506043118 65 92 5.0 10.0 0.00 0.00 0.00 68 939.6
20260506043018 65 37 5.0 11.0 0.00 0.00 0.00 67 939.6
20260506042918 65 35 5.0 11.0 0.00 0.00 0.00 67 939.5
20260506042819 65 17 6.0 11.0 0.00 0.00 0.00 67 939.4
20260506042718 65 14 6.0 12.0 0.00 0.00 0.00 67 939.5
20260506042618 65 20 6.0 13.0 0.00 0.00 0.00 67 939.4
20260506042518 65 9 6.0 14.0 0.00 0.00 0.00 66 939.4
20260506042419 65 67 6.0 14.0 0.00 0.00 0.00 66 939.4
20260506042342 65 35 6.0 14.0 0.00 0.00 0.00 66 939.4
20260506042218 65 56 6.0 14.0 0.00 0.00 0.00 66 939.5
20260506042118 65 48 6.0 14.0 0.00 0.00 0.00 66 939.6
20260506042019 65 32 6.0 14.0 0.00 0.00 0.00 66 939.7
20260506041913 65 40 6.0 14.0 0.00 0.00 0.00 65 939.8
20260506041814 65 40 6.0 14.0 0.00 0.00 0.00 66 939.8
20260506041713 65 351 5.0 14.0 0.00 0.00 0.00 65 939.8
20260506041613 65 26 5.0 14.0 0.00 0.00 0.00 66 939.8
20260506041514 66 52 5.0 13.0 0.00 0.00 0.00 66 939.8
20260506041414 66 38 5.0 10.0 0.00 0.00 0.00 66 939.7
20260506041341 66 350 5.0 9.0 0.00 0.00 0.00 65 939.7
20260506041214 66 48 5.0 9.0 0.00 0.00 0.00 66 939.7
20260506041114 66 20 5.0 9.0 0.00 0.00 0.00 65 939.7
20260506041014 66 29 5.0 9.0 0.00 0.00 0.00 65 939.6
20260506040914 66 15 5.0 9.0 0.00 0.00 0.00 65 939.6
20260506040813 66 38 5.0 9.0 0.00 0.00 0.00 65 939.6
20260506040714 66 5 5.0 9.0 0.00 0.00 0.00 65 939.6
20260506040615 66 340 5.0 9.0 0.00 0.00 0.00 65 939.6
20260506040513 66 0 5.0 9.0 0.00 0.00 0.00 64 939.6
20260506040413 66 346 5.0 9.0 0.00 0.00 0.00 64 939.6
20260506040346 66 327 5.0 9.0 0.00 0.00 0.00 64 939.5
20260506040215 66 340 5.0 9.0 0.00 0.00 0.00 64 939.5
20260506040115 67 342 5.0 9.0 0.00 0.00 0.00 64 939.6
20260506040010 67 5 5.0 9.0 0.00 0.00 0.00 64 939.5
20260506035909 67 9 4.0 9.0 0.00 0.00 0.00 63 939.6
20260506035811 67 0 4.0 8.0 0.00 0.00 0.00 63 939.5
20260506035710 67 11 4.0 8.0 0.00 0.00 0.00 63 939.5
20260506035609 67 347 4.0 8.0 0.00 0.00 0.00 63 939.6
20260506035510 67 9 4.0 8.0 0.00 0.00 0.00 63 939.6
20260506035410 67 9 4.0 9.0 0.00 0.00 0.00 63 939.6
20260506035309 67 349 4.0 9.0 0.00 0.00 0.00 63 939.6
20260506035209 67 355 4.0 9.0 0.00 0.00 0.00 63 939.6
20260506035110 67 9 4.0 10.0 0.00 0.00 0.00 63 939.5
20260506035009 67 355 4.0 10.0 0.00 0.00 0.00 63 939.5
20260506034909 67 0 5.0 10.0 0.00 0.00 0.00 63 939.4
20260506034810 67 57 5.0 10.0 0.00 0.00 0.00 63 939.4
20260506034709 67 26 5.0 10.0 0.00 0.00 0.00 63 939.4
20260506034609 67 22 5.0 10.0 0.00 0.00 0.00 63 939.4
20260506034509 67 38 5.0 10.0 0.00 0.00 0.00 63 939.4
20260506034409 67 30 5.0 10.0 0.00 0.00 0.00 63 939.4
20260506034309 67 17 5.0 10.0 0.00 0.00 0.00 62 939.4
20260506034210 67 11 5.0 10.0 0.00 0.00 0.00 62 939.4
20260506034106 67 355 5.0 9.0 0.00 0.00 0.00 63 939.3
20260506034005 67 23 5.0 9.0 0.00 0.00 0.00 63 939.4
20260506033905 68 355 5.0 9.0 0.00 0.00 0.00 63 939.4
20260506033839 68 13 4.0 9.0 0.00 0.00 0.00 62 939.4
20260506033705 68 10 4.0 9.0 0.00 0.00 0.00 63 939.4
20260506033605 68 350 4.0 9.0 0.00 0.00 0.00 63 939.4
20260506033507 68 15 4.0 9.0 0.00 0.00 0.00 62 939.4
20260506033405 68 355 4.0 9.0 0.00 0.00 0.00 62 939.4
20260506033305 68 31 4.0 9.0 0.00 0.00 0.00 62 939.5
20260506033205 68 38 4.0 9.0 0.00 0.00 0.00 62 939.5
20260506033106 68 22 4.0 9.0 0.00 0.00 0.00 61 939.5
20260506033005 68 10 4.0 9.0 0.00 0.00 0.00 62 939.5
20260506032906 68 40 4.0 9.0 0.00 0.00 0.00 62 939.4
20260506032840 68 13 4.0 9.0 0.00 0.00 0.00 62 939.4
20260506032706 68 26 4.0 9.0 0.00 0.00 0.00 62 939.4
20260506032606 68 24 4.0 9.0 0.00 0.00 0.00 62 939.4
20260506032505 68 25 4.0 9.0 0.00 0.00 0.00 62 939.4
20260506032405 68 343 4.0 9.0 0.00 0.00 0.00 62 939.3
20260506032306 68 340 4.0 8.0 0.00 0.00 0.00 62 939.3
20260506032201 68 26 4.0 9.0 0.00 0.00 0.00 62 939.3
20260506032101 68 26 4.0 9.0 0.00 0.00 0.00 62 939.4
20260506032002 68 22 4.0 9.0 0.00 0.00 0.00 62 939.4
20260506031902 68 355 4.0 9.0 0.00 0.00 0.00 62 939.4
20260506031802 68 54 4.0 9.0 0.00 0.00 0.00 62 939.4
20260506031702 68 40 5.0 9.0 0.00 0.00 0.00 62 939.4
20260506031601 68 18 5.0 9.0 0.00 0.00 0.00 62 939.4
20260506031502 68 349 5.0 9.0 0.00 0.00 0.00 62 939.4
20260506031359 69 19 5.0 9.0 0.00 0.00 0.00 62 939.4
20260506031259 69 29 5.0 9.0 0.00 0.00 0.00 62 939.4
20260506031201 69 0 5.0 9.0 0.00 0.00 0.00 62 939.4
20260506031059 69 13 5.0 9.0 0.00 0.00 0.00 62 939.4
20260506030955 69 355 5.0 9.0 0.00 0.00 0.00 61 939.4
20260506030854 69 11 5.0 9.0 0.00 0.00 0.00 61 939.3
20260506030754 69 5 5.0 9.0 0.00 0.00 0.00 62 939.4
20260506030653 69 5 5.0 9.0 0.00 0.00 0.00 62 939.3
20260506030554 69 9 5.0 9.0 0.00 0.00 0.00 62 939.3
20260506030448 69 346 5.0 9.0 0.00 0.00 0.00 62 939.2
20260506030348 69 355 5.0 9.0 0.00 0.00 0.00 61 939.2
20260506030247 69 22 5.0 9.0 0.00 0.00 0.00 62 939.1
20260506030148 69 15 5.0 9.0 0.00 0.00 0.00 62 939.1
20260506030048 69 5 5.0 9.0 0.00 0.00 0.00 62 939.1
20260506025943 69 0 5.0 9.0 0.00 0.00 0.00 62 939.0
20260506025843 69 18 5.0 9.0 0.00 0.00 0.00 62 939.0
20260506025742 69 9 5.0 9.0 0.00 0.00 0.00 62 938.9
20260506025643 69 44 5.0 9.0 0.00 0.00 0.00 62 938.9
20260506025542 69 24 5.0 9.0 0.00 0.00 0.00 62 938.9
20260506025437 69 10 5.0 9.0 0.00 0.00 0.00 63 938.9
20260506025336 69 355 5.0 9.0 0.00 0.00 0.00 63 938.9
20260506025237 69 35 5.0 9.0 0.00 0.00 0.00 64 938.9
20260506025137 69 25 4.0 9.0 0.00 0.00 0.00 63 938.9
20260506025036 69 15 4.0 9.0 0.00 0.00 0.00 63 938.9
20260506024933 69 9 4.0 9.0 0.00 0.00 0.00 64 938.9
20260506024831 69 36 4.0 9.0 0.00 0.00 0.00 64 938.8
20260506024731 69 15 4.0 9.0 0.00 0.00 0.00 64 938.8
20260506024630 69 22 4.0 8.0 0.00 0.00 0.00 64 938.9
20260506024530 69 9 3.0 8.0 0.00 0.00 0.00 64 938.9
20260506024425 69 9 3.0 8.0 0.00 0.00 0.00 64 938.8
20260506024336 69 355 3.0 8.0 0.00 0.00 0.00 64 938.8
20260506024319 69 351 3.0 8.0 0.00 0.00 0.00 64 938.8
20260506024124 69 342 3.0 8.0 0.00 0.00 0.00 65 938.8
20260506024024 69 27 3.0 8.0 0.00 0.00 0.00 65 938.8
20260506023920 69 9 3.0 5.0 0.00 0.00 0.00 64 938.7
20260506023820 69 23 3.0 5.0 0.00 0.00 0.00 64 938.7
20260506023621 69 10 3.0 5.0 0.00 0.00 0.00 64 938.7
20260506023518 69 336 3.0 5.0 0.00 0.00 0.00 64 938.7
20260506023415 69 346 3.0 5.0 0.00 0.00 0.00 64 938.7
20260506023312 69 336 3.0 5.0 0.00 0.00 0.00 64 938.7
20260506023213 69 348 3.0 5.0 0.00 0.00 0.00 64 938.7
20260506023113 69 342 3.0 5.0 0.00 0.00 0.00 64 938.7
20260506023012 69 335 3.0 5.0 0.00 0.00 0.00 64 938.7
20260506022909 69 340 2.0 5.0 0.00 0.00 0.00 64 938.7
20260506022827 69 327 2.0 5.0 0.00 0.00 0.00 64 938.6
20260506022811 70 350 2.0 5.0 0.00 0.00 0.00 64 938.6
20260506022607 70 348 2.0 5.0 0.00 0.00 0.00 64 938.6
20260506022506 70 336 2.0 4.0 0.00 0.00 0.00 64 938.6
20260506022404 70 330 2.0 4.0 0.00 0.00 0.00 65 938.6
20260506022326 70 319 1.0 4.0 0.00 0.00 0.00 65 938.6
20260506022308 70 336 2.0 3.0 0.00 0.00 0.00 65 938.5
20260506022103 70 5 2.0 4.0 0.00 0.00 0.00 64 938.5
20260506022000 70 5 2.0 5.0 0.00 0.00 0.00 65 938.5
20260506021857 70 5 2.0 5.0 0.00 0.00 0.00 65 938.5
20260506021755 70 5 2.0 5.0 0.00 0.00 0.00 64 938.5
20260506021655 70 5 3.0 5.0 0.00 0.00 0.00 62 938.5
20260506021554 70 9 3.0 5.0 0.00 0.00 0.00 62 938.5
20260506021454 71 14 3.0 5.0 0.00 0.00 0.00 63 938.5
20260506021348 71 13 2.0 5.0 0.00 0.00 0.00 62 938.5
20260506021248 71 24 2.0 5.0 0.00 0.00 0.00 62 938.5
20260506021149 71 5 2.0 5.0 0.00 0.00 0.00 62 938.4
20260506021049 71 13 2.0 5.0 0.00 0.00 0.00 61 938.4
20260506020948 71 10 2.0 4.0 0.00 0.00 0.00 62 938.4
20260506020841 71 11 2.0 4.0 0.00 0.00 0.00 61 938.4
20260506020742 71 5 2.0 4.0 0.00 0.00 0.00 62 938.4
20260506020643 71 5 2.0 4.0 0.00 0.00 0.00 61 938.3
20260506020541 71 9 2.0 4.0 0.00 0.00 0.00 61 938.3
20260506020442 71 11 2.0 4.0 0.00 0.00 0.00 61 938.3
20260506020338 71 355 2.0 4.0 0.00 0.00 0.00 61 938.2
20260506020237 71 0 2.0 4.0 0.00 0.00 0.00 61 938.2
20260506020138 71 0 2.0 4.0 0.00 0.00 0.00 62 938.2
20260506020039 71 51 2.0 4.0 0.00 0.00 0.00 62 938.1
20260506015936 72 22 2.0 4.0 0.00 0.00 0.00 62 938.1
20260506015831 72 53 2.0 4.0 0.00 0.00 0.00 62 938.0
20260506015731 72 48 2.0 4.0 0.00 0.00 0.00 62 938.0
20260506015631 72 32 3.0 5.0 0.00 0.00 0.00 60 938.0
20260506015529 72 5 3.0 5.0 0.00 0.00 0.00 60 938.0
20260506015430 72 5 3.0 5.0 0.00 0.00 0.00 60 938.1
20260506015326 72 5 3.0 5.0 0.00 0.00 0.00 60 938.1
20260506015225 72 350 3.0 5.0 0.00 0.00 0.00 60 938.1
20260506015125 72 10 3.0 5.0 0.00 0.00 0.00 60 938.1
20260506015024 72 5 3.0 5.0 0.00 0.00 0.00 60 938.1
20260506014925 72 336 3.0 5.0 0.00 0.00 0.00 60 938.1
20260506014819 73 337 3.0 5.0 0.00 0.00 0.00 60 938.1
20260506014718 73 29 3.0 5.0 0.00 0.00 0.00 61 938.0
20260506014618 73 355 3.0 7.0 0.00 0.00 0.00 60 938.0
20260506014517 73 0 3.0 7.0 0.00 0.00 0.00 60 938.0
20260506014415 73 30 3.0 7.0 0.00 0.00 0.00 60 938.0
20260506014319 73 5 3.0 7.0 0.00 0.00 0.00 61 938.0
20260506014302 73 19 3.0 7.0 0.00 0.00 0.00 59 938.0
20260506014108 73 12 3.0 7.0 0.00 0.00 0.00 60 938.0
20260506014008 73 9 3.0 7.0 0.00 0.00 0.00 61 938.0
20260506013908 73 19 3.0 7.0 0.00 0.00 0.00 60 937.9
20260506013806 73 28 3.0 7.0 0.00 0.00 0.00 59 937.9
20260506013706 74 346 3.0 7.0 0.00 0.00 0.00 58 937.8
20260506013604 74 26 3.0 7.0 0.00 0.00 0.00 58 937.8
20260506013504 74 13 3.0 5.0 0.00 0.00 0.00 58 937.8
20260506013404 74 347 3.0 5.0 0.00 0.00 0.00 58 937.8
20260506013303 74 355 3.0 5.0 0.00 0.00 0.00 58 937.8
20260506013205 74 17 3.0 5.0 0.00 0.00 0.00 58 937.7
20260506013102 74 340 3.0 7.0 0.00 0.00 0.00 57 937.7
20260506013002 74 22 3.0 7.0 0.00 0.00 0.00 57 937.7
20260506012903 74 15 3.0 7.0 0.00 0.00 0.00 57 937.7
20260506012801 75 345 3.0 7.0 0.00 0.00 0.00 57 937.7
20260506012703 75 43 3.0 7.0 0.00 0.00 0.00 57 937.6
20260506012603 75 21 4.0 7.0 0.00 0.00 0.00 57 937.6
20260506012459 75 24 4.0 7.0 0.00 0.00 0.00 56 937.6
20260506012400 75 9 4.0 7.0 0.00 0.00 0.00 56 937.6
20260506012259 75 15 4.0 7.0 0.00 0.00 0.00 57 937.6
20260506012156 75 5 4.0 7.0 0.00 0.00 0.00 56 937.6
20260506012055 75 0 4.0 8.0 0.00 0.00 0.00 56 937.5
20260506011956 76 345 4.0 8.0 0.00 0.00 0.00 56 937.5
20260506011857 76 16 4.0 8.0 0.00 0.00 0.00 56 937.5
20260506011756 76 5 4.0 8.0 0.00 0.00 0.00 56 937.4
20260506011554 76 0 4.0 8.0 0.00 0.00 0.00 56 937.4
20260506011535 76 13 4.0 8.0 0.00 0.00 0.00 56 937.4
20260506011354 76 5 4.0 8.0 0.00 0.00 0.00 56 937.3
20260506011313 76 28 4.0 8.0 0.00 0.00 0.00 55 937.4
20260506011256 76 344 4.0 8.0 0.00 0.00 0.00 55 937.3
20260506011046 76 355 4.0 8.0 0.00 0.00 0.00 55 937.4
20260506010946 76 20 4.0 8.0 0.00 0.00 0.00 55 937.4
20260506010845 77 22 4.0 8.0 0.00 0.00 0.00 55 937.3
20260506010746 77 5 4.0 8.0 0.00 0.00 0.00 56 937.3
20260506010541 77 29 4.0 8.0 0.00 0.00 0.00 55 937.2
20260506010439 77 61 4.0 8.0 0.00 0.00 0.00 55 937.2
20260506010341 77 15 4.0 8.0 0.00 0.00 0.00 55 937.1
20260506010240 77 11 4.0 8.0 0.00 0.00 0.00 55 937.1
20260506010034 77 41 4.0 9.0 0.00 0.00 0.00 55 937.2
20260506005934 78 333 4.0 9.0 0.00 0.00 0.00 55 937.1
20260506005834 78 26 4.0 9.0 0.00 0.00 0.00 55 937.1
20260506005734 78 30 4.0 9.0 0.00 0.00 0.00 55 937.1
20260506005527 78 5 4.0 10.0 0.00 0.00 0.00 56 937.1
20260506005428 78 32 4.0 10.0 0.00 0.00 0.00 55 937.0
20260506005329 78 53 4.0 10.0 0.00 0.00 0.00 55 937.0
20260506005249 78 46 5.0 10.0 0.00 0.00 0.00 55 937.0
20260506005232 78 57 5.0 10.0 0.00 0.00 0.00 56 936.9
20260506005023 78 17 5.0 10.0 0.00 0.00 0.00 55 936.8
20260506004922 78 71 5.0 10.0 0.00 0.00 0.00 54 936.8
20260506004822 78 50 4.0 10.0 0.00 0.00 0.00 54 936.7
20260506004744 78 38 4.0 10.0 0.00 0.00 0.00 54 936.8
20260506004727 78 46 4.0 10.0 0.00 0.00 0.00 53 936.7
20260506004518 78 5 3.0 10.0 0.00 0.00 0.00 54 936.8
20260506004415 79 31 4.0 10.0 0.00 0.00 0.00 52 936.9
20260506004315 79 32 3.0 10.0 0.00 0.00 0.00 52 936.9
20260506004238 79 33 3.0 8.0 0.00 0.00 0.00 52 936.9
20260506004220 79 22 3.0 8.0 0.00 0.00 0.00 51 936.9
20260506004010 79 355 3.0 8.0 0.00 0.00 0.00 50 936.9
20260506003911 79 19 3.0 8.0 0.00 0.00 0.00 49 936.8
20260506003811 79 27 3.0 8.0 0.00 0.00 0.00 48 936.8
20260506003731 79 348 3.0 8.0 0.00 0.00 0.00 48 936.9
20260506003714 79 34 3.0 8.0 0.00 0.00 0.00 47 936.9
20260506003503 79 337 3.0 8.0 0.00 0.00 0.00 47 936.8
20260506003404 79 10 3.0 8.0 0.00 0.00 0.00 46 936.8
20260506003304 79 15 3.0 8.0 0.00 0.00 0.00 46 936.7
20260506003203 79 11 3.0 5.0 0.00 0.00 0.00 45 936.7
20260506002958 79 13 3.0 5.0 0.00 0.00 0.00 44 936.6
20260506002858 79 342 3.0 5.0 0.00 0.00 0.00 45 936.6
20260506002758 79 329 3.0 5.0 0.00 0.00 0.00 44 936.6
20260506002719 79 306 3.0 5.0 0.00 0.00 0.00 45 936.6
20260506002702 79 335 3.0 5.0 0.00 0.00 0.00 45 936.6
20260506002452 80 323 3.0 5.0 0.00 0.00 0.00 45 936.5
20260506002353 80 329 4.0 6.0 0.00 0.00 0.00 45 936.5
20260506002253 80 330 4.0 6.0 0.00 0.00 0.00 45 936.5
20260506002152 80 348 4.0 6.0 0.00 0.00 0.00 44 936.5
20260506001947 80 331 4.0 6.0 0.00 0.00 0.00 45 936.4
20260506001846 80 19 4.0 6.0 0.00 0.00 0.00 44 936.4
20260506001747 80 15 4.0 6.0 0.00 0.00 0.00 44 936.4
20260506001646 80 330 4.0 6.0 0.00 0.00 0.00 44 936.4
20260506001441 80 327 4.0 6.0 0.00 0.00 0.00 44 936.5
20260506001342 80 327 4.0 6.0 0.00 0.00 0.00 45 936.4
20260506001242 80 348 4.0 6.0 0.00 0.00 0.00 45 936.4
20260506001142 80 348 4.0 6.0 0.00 0.00 0.00 44 936.3
20260506000937 80 319 4.0 7.0 0.00 0.00 0.00 44 936.3
20260506000835 80 311 4.0 7.0 0.00 0.00 0.00 44 936.3
20260506000735 80 314 4.0 7.0 0.00 0.00 0.00 43 936.3
20260506000656 80 331 3.0 7.0 0.00 0.00 0.00 43 936.3
20260506000639 80 309 4.0 7.0 0.00 0.00 0.00 43 936.3
20260506000431 81 315 4.0 7.0 0.00 0.00 0.00 44 936.3
20260506000330 81 331 4.0 7.0 0.00 0.00 0.00 43 936.2
20260506000228 81 346 4.0 7.0 0.00 0.00 0.00 43 936.0
20260506000129 81 325 4.0 7.0 0.00 0.00 0.00 42 936.0
20260505235923 81 17 4.0 6.0 0.00 0.00 0.00 44 936.0
20260505235822 81 11 4.0 6.0 0.00 0.00 0.00 42 936.1
20260505235723 81 19 4.0 6.0 0.00 0.00 0.00 42 936.2
20260505235621 81 355 4.0 6.0 0.00 0.00 0.00 42 936.3
20260505235417 82 340 4.0 6.0 0.00 0.00 0.00 42 936.2
20260505235317 82 331 4.0 6.0 0.00 0.00 0.00 42 936.2
20260505235216 82 345 4.0 6.0 0.00 0.00 0.00 41 936.2
20260505235116 82 336 4.0 7.0 0.00 0.00 0.00 42 936.2
20260505234911 82 5 4.0 7.0 0.00 0.00 0.00 42 936.2
20260505234810 82 337 4.0 7.0 0.00 0.00 0.00 42 936.1
20260505234711 82 310 4.0 7.0 0.00 0.00 0.00 41 936.1
20260505234611 82 19 4.0 8.0 0.00 0.00 0.00 41 936.0
20260505234405 83 344 5.0 8.0 0.00 0.00 0.00 41 935.9
20260505234303 83 349 5.0 11.0 0.00 0.00 0.00 40 935.9
20260505234205 83 355 5.0 11.0 0.00 0.00 0.00 40 935.9
20260505234103 83 338 6.0 11.0 0.00 0.00 0.00 40 935.8
20260505233859 83 10 6.0 11.0 0.00 0.00 0.00 39 935.8
20260505233759 83 23 6.0 11.0 0.00 0.00 0.00 40 935.8
20260505233700 83 20 6.0 11.0 0.00 0.00 0.00 39 935.9
20260505233600 83 9 7.0 11.0 0.00 0.00 0.00 39 935.9
20260505233355 84 5 7.0 14.0 0.00 0.00 0.00 39 936.0
20260505233252 84 351 7.0 14.0 0.00 0.00 0.00 39 935.9
20260505233152 84 15 7.0 14.0 0.00 0.00 0.00 39 935.8
20260505233052 84 48 7.0 14.0 0.00 0.00 0.00 39 935.8
20260505232846 84 296 7.0 14.0 0.00 0.00 0.00 37 936.0
20260505232746 84 337 7.0 14.0 0.00 0.00 0.00 38 936.0
20260505232646 85 325 8.0 14.0 0.00 0.00 0.00 37 936.0
20260505232545 85 355 7.0 14.0 0.00 0.00 0.00 37 935.9
20260505232341 85 0 6.0 12.0 0.00 0.00 0.00 38 935.9
20260505232239 85 306 6.0 12.0 0.00 0.00 0.00 37 936.0
20260505232140 85 16 6.0 12.0 0.00 0.00 0.00 38 936.0
20260505232041 85 314 5.0 12.0 0.00 0.00 0.00 37 936.1
20260505231833 85 320 4.0 12.0 0.00 0.00 0.00 37 935.9
20260505231735 85 315 4.0 12.0 0.00 0.00 0.00 37 935.9
20260505231635 85 0 4.0 11.0 0.00 0.00 0.00 39 935.8
20260505231533 86 319 4.0 11.0 0.00 0.00 0.00 36 935.7
20260505231327 86 313 4.0 11.0 0.00 0.00 0.00 36 935.7
20260505231227 86 342 4.0 11.0 0.00 0.00 0.00 36 935.7
20260505231128 86 344 5.0 11.0 0.00 0.00 0.00 36 935.6
20260505231029 86 5 5.0 11.0 0.00 0.00 0.00 35 935.7
20260505230822 86 327 5.0 11.0 0.00 0.00 0.00 33 935.6
20260505230721 86 308 5.0 11.0 0.00 0.00 0.00 36 935.6
20260505230622 86 336 4.0 11.0 0.00 0.00 0.00 36 935.6
20260505230521 86 37 4.0 9.0 0.00 0.00 0.00 35 935.6
20260505230318 87 327 4.0 9.0 0.00 0.00 0.00 36 935.7
20260505230218 87 355 4.0 9.0 0.00 0.00 0.00 35 935.7
20260505230117 87 331 4.0 8.0 0.00 0.00 0.00 35 935.8
20260505230019 87 355 4.0 8.0 0.00 0.00 0.00 36 935.7
20260505225812 87 327 4.0 9.0 0.00 0.00 0.00 35 935.8
20260505225710 87 338 4.0 9.0 0.00 0.00 0.00 33 935.8
20260505225610 87 17 4.0 9.0 0.00 0.00 0.00 33 935.8
20260505225509 87 331 4.0 9.0 0.00 0.00 0.00 34 935.7
20260505225305 87 329 4.0 9.0 0.00 0.00 0.00 33 935.9
20260505225203 88 298 5.0 9.0 0.00 0.00 0.00 35 935.9
20260505225105 88 329 5.0 9.0 0.00 0.00 0.00 32 935.9
20260505225004 88 325 5.0 9.0 0.00 0.00 0.00 33 936.0
20260505224758 88 317 5.0 9.0 0.00 0.00 0.00 34 936.0
20260505224658 88 305 5.0 9.0 0.00 0.00 0.00 33 935.9
20260505224558 88 288 5.0 12.0 0.00 0.00 0.00 33 935.9
20260505224458 88 259 5.0 12.0 0.00 0.00 0.00 34 935.9
20260505224252 88 241 5.0 12.0 0.00 0.00 0.00 34 935.8
20260505224151 88 253 5.0 12.0 0.00 0.00 0.00 35 935.8
20260505224052 88 219 4.0 12.0 0.00 0.00 0.00 34 935.8
20260505223951 88 261 4.0 12.0 0.00 0.00 0.00 34 935.7
20260505223748 88 229 4.0 12.0 0.00 0.00 0.00 32 935.7
20260505223648 88 259 4.0 12.0 0.00 0.00 0.00 32 935.6
20260505223548 88 252 4.0 9.0 0.00 0.00 0.00 33 935.7
20260505223448 89 227 4.0 9.0 0.00 0.00 0.00 33 935.6
20260505223245 89 242 4.0 9.0 0.00 0.00 0.00 32 935.6
20260505223144 89 235 4.0 9.0 0.00 0.00 0.00 31 935.6
20260505223041 89 234 4.0 9.0 0.00 0.00 0.00 32 935.6
20260505222943 89 235 4.0 9.0 0.00 0.00 0.00 31 935.6
20260505222736 89 223 4.0 9.0 0.00 0.00 0.00 33 935.6
20260505222636 89 229 4.0 8.0 0.00 0.00 0.00 31 935.6
20260505222535 89 220 4.0 9.0 0.00 0.00 0.00 31 935.5
20260505222437 89 246 5.0 10.0 0.00 0.00 0.00 33 935.5
20260505222229 89 192 4.0 10.0 0.00 0.00 0.00 32 935.5
20260505222128 89 222 4.0 10.0 0.00 0.00 0.00 30 935.5
20260505222028 89 237 4.0 10.0 0.00 0.00 0.00 30 935.5
20260505221928 89 250 4.0 10.0 0.00 0.00 0.00 30 935.5
20260505221723 89 215 4.0 10.0 0.00 0.00 0.00 31 935.5
20260505221622 89 215 4.0 10.0 0.00 0.00 0.00 31 935.4
20260505221522 89 232 3.0 10.0 0.00 0.00 0.00 31 935.5
20260505221421 89 199 4.0 9.0 0.00 0.00 0.00 33 935.4
20260505221216 89 206 4.0 11.0 0.00 0.00 0.00 33 935.4
20260505221115 89 225 4.0 11.0 0.00 0.00 0.00 34 935.4
20260505221017 89 209 4.0 11.0 0.00 0.00 0.00 32 935.3
20260505220915 89 225 5.0 11.0 0.00 0.00 0.00 32 935.3
20260505220709 89 259 5.0 11.0 0.00 0.00 0.00 31 935.2
20260505220609 89 263 5.0 11.0 0.00 0.00 0.00 35 935.2
20260505220510 89 233 5.0 11.0 0.00 0.00 0.00 32 935.2
20260505220430 89 202 5.0 11.0 0.00 0.00 0.00 34 935.2
20260505220415 89 234 5.0 10.0 0.00 0.00 0.00 35 935.2
20260505220205 89 235 5.0 10.0 0.00 0.00 0.00 32 935.2
20260505220105 89 229 5.0 11.0 0.00 0.00 0.00 33 935.2
20260505220005 89 205 5.0 11.0 0.00 0.00 0.00 34 935.2
20260505215907 89 233 5.0 11.0 0.00 0.00 0.00 35 935.3
20260505215700 89 193 6.0 11.0 0.00 0.00 0.00 34 935.4
20260505215557 89 199 6.0 11.0 0.00 0.00 0.00 34 935.4
20260505215458 89 195 6.0 13.0 0.00 0.00 0.00 34 935.4
20260505215357 89 244 6.0 13.0 0.00 0.00 0.00 36 935.4
20260505215152 89 193 6.0 13.0 0.00 0.00 0.00 34 935.5
20260505215052 89 212 6.0 13.0 0.00 0.00 0.00 35 935.5
20260505214952 89 220 6.0 13.0 0.00 0.00 0.00 35 935.5
20260505214852 89 200 6.0 13.0 0.00 0.00 0.00 35 935.5
20260505214648 89 191 7.0 13.0 0.00 0.00 0.00 33 935.5
20260505214546 89 192 7.0 13.0 0.00 0.00 0.00 32 935.5
20260505214447 89 196 7.0 12.0 0.00 0.00 0.00 33 935.5
20260505214345 89 211 7.0 12.0 0.00 0.00 0.00 33 935.5
20260505214141 89 206 7.0 12.0 0.00 0.00 0.00 33 935.5
20260505214039 89 205 7.0 12.0 0.00 0.00 0.00 32 935.5
20260505213940 89 226 7.0 12.0 0.00 0.00 0.00 34 935.5
20260505213839 90 219 7.0 12.0 0.00 0.00 0.00 32 935.5
20260505213634 90 209 6.0 11.0 0.00 0.00 0.00 33 935.5
20260505213533 90 212 6.0 11.0 0.00 0.00 0.00 32 935.5
20260505213435 90 188 6.0 11.0 0.00 0.00 0.00 35 935.5
20260505213334 90 191 6.0 10.0 0.00 0.00 0.00 33 935.5
20260505213127 90 224 6.0 11.0 0.00 0.00 0.00 32 935.7
20260505213028 90 196 5.0 11.0 0.00 0.00 0.00 32 935.6
20260505212928 90 209 5.0 11.0 0.00 0.00 0.00 32 935.6
20260505212827 90 198 5.0 11.0 0.00 0.00 0.00 32 935.7
20260505212623 90 233 5.0 11.0 0.00 0.00 0.00 34 935.7
20260505212524 90 213 5.0 13.0 0.00 0.00 0.00 34 935.7
20260505212423 90 219 5.0 13.0 0.00 0.00 0.00 33 935.7
20260505212324 90 259 5.0 13.0 0.00 0.00 0.00 32 935.7
20260505212222 90 274 5.0 13.0 0.00 0.00 0.00 32 935.7
20260505212118 90 240 5.0 15.0 0.00 0.00 0.00 34 935.7
20260505212016 90 221 5.0 15.0 0.00 0.00 0.00 34 935.7
20260505211915 91 242 5.0 15.0 0.00 0.00 0.00 32 935.8
20260505211816 91 246 5.0 15.0 0.00 0.00 0.00 30 935.8
20260505211716 91 212 5.0 15.0 0.00 0.00 0.00 30 935.8
20260505211611 91 220 5.0 15.0 0.00 0.00 0.00 30 935.8
20260505211509 91 235 5.0 15.0 0.00 0.00 0.00 30 935.9
20260505211410 91 222 6.0 15.0 0.00 0.00 0.00 31 935.9
20260505211311 91 215 6.0 15.0 0.00 0.00 0.00 29 935.9
20260505211210 91 284 5.0 15.0 0.00 0.00 0.00 30 935.8
20260505211104 91 199 5.0 11.0 0.00 0.00 0.00 32 935.9
20260505211004 91 252 5.0 11.0 0.00 0.00 0.00 32 935.9
20260505210904 91 199 5.0 11.0 0.00 0.00 0.00 32 935.9
20260505210836 91 255 5.0 11.0 0.00 0.00 0.00 31 935.9
20260505210704 91 264 5.0 10.0 0.00 0.00 0.00 32 936.0
20260505210558 91 232 5.0 10.0 0.00 0.00 0.00 35 936.0
20260505210458 91 242 5.0 10.0 0.00 0.00 0.00 35 936.0
20260505210358 91 254 5.0 10.0 0.00 0.00 0.00 33 936.0
20260505210257 91 211 5.0 9.0 0.00 0.00 0.00 33 936.0
20260505210158 91 214 5.0 9.0 0.00 0.00 0.00 34 936.0
20260505210052 90 244 5.0 10.0 0.00 0.00 0.00 33 936.0
20260505205952 90 246 5.0 10.0 0.00 0.00 0.00 33 936.0
20260505205852 90 213 6.0 13.0 0.00 0.00 0.00 32 936.0
20260505205752 90 215 6.0 13.0 0.00 0.00 0.00 32 936.0
20260505205652 90 191 7.0 13.0 0.00 0.00 0.00 35 936.0
20260505205546 90 202 7.0 13.0 0.00 0.00 0.00 36 936.1
20260505205445 90 203 7.0 14.0 0.00 0.00 0.00 32 936.1
20260505205346 90 145 7.0 14.0 0.00 0.00 0.00 34 936.1
20260505205245 90 229 8.0 14.0 0.00 0.00 0.00 36 936.1
20260505205146 90 205 8.0 14.0 0.00 0.00 0.00 36 936.1
20260505205042 90 260 8.0 14.0 0.00 0.00 0.00 35 936.2
20260505204941 90 234 8.0 15.0 0.00 0.00 0.00 34 936.1
20260505204841 90 253 8.0 15.0 0.00 0.00 0.00 33 936.1
20260505204742 90 236 8.0 15.0 0.00 0.00 0.00 33 936.1
20260505204640 90 213 8.0 15.0 0.00 0.00 0.00 33 936.2
20260505204536 90 236 7.0 15.0 0.00 0.00 0.00 32 936.1
20260505204434 90 222 7.0 15.0 0.00 0.00 0.00 33 936.1
20260505204335 90 202 7.0 15.0 0.00 0.00 0.00 33 936.1
20260505204234 91 214 7.0 15.0 0.00 0.00 0.00 32 936.1
20260505204134 91 200 7.0 15.0 0.00 0.00 0.00 34 936.1
20260505204028 91 223 7.0 15.0 0.00 0.00 0.00 34 936.2
20260505203928 91 221 7.0 15.0 0.00 0.00 0.00 36 936.2
20260505203828 91 260 6.0 15.0 0.00 0.00 0.00 34 936.1
20260505203728 91 240 6.0 15.0 0.00 0.00 0.00 35 936.1
20260505203628 91 253 7.0 15.0 0.00 0.00 0.00 31 936.2
20260505203523 91 227 7.0 15.0 0.00 0.00 0.00 33 936.1
20260505203421 91 227 7.0 15.0 0.00 0.00 0.00 32 936.1
20260505203322 91 217 7.0 15.0 0.00 0.00 0.00 35 936.1
20260505203122 90 200 6.0 15.0 0.00 0.00 0.00 31 936.1
20260505203016 91 198 6.0 14.0 0.00 0.00 0.00 33 936.1
20260505202916 90 182 6.0 14.0 0.00 0.00 0.00 35 936.2
20260505202816 91 238 6.0 14.0 0.00 0.00 0.00 33 936.1
20260505202716 91 212 6.0 14.0 0.00 0.00 0.00 32 936.1
20260505202616 91 238 6.0 14.0 0.00 0.00 0.00 34 936.1
20260505202510 91 219 6.0 14.0 0.00 0.00 0.00 32 936.1
20260505202410 91 227 7.0 14.0 0.00 0.00 0.00 32 936.2
20260505202310 91 213 7.0 14.0 0.00 0.00 0.00 36 936.2
20260505202210 91 217 7.0 14.0 0.00 0.00 0.00 34 936.2
20260505202111 91 222 7.0 14.0 0.00 0.00 0.00 36 936.2
20260505202005 90 197 7.0 14.0 0.00 0.00 0.00 36 936.2
20260505201903 90 208 6.0 14.0 0.00 0.00 0.00 33 936.2
20260505201804 90 211 6.0 12.0 0.00 0.00 0.00 33 936.3
20260505201703 90 178 6.0 12.0 0.00 0.00 0.00 35 936.3
20260505201604 90 185 6.0 16.0 0.00 0.00 0.00 35 936.3
20260505201459 90 198 6.0 16.0 0.00 0.00 0.00 35 936.4
20260505201359 90 196 5.0 16.0 0.00 0.00 0.00 35 936.4
20260505201259 90 202 5.0 16.0 0.00 0.00 0.00 35 936.4
20260505201200 90 177 5.0 16.0 0.00 0.00 0.00 38 936.4
20260505201058 90 242 5.0 16.0 0.00 0.00 0.00 36 936.4
20260505200954 90 251 5.0 16.0 0.00 0.00 0.00 35 936.5
20260505200852 90 229 5.0 16.0 0.00 0.00 0.00 36 936.5
20260505200751 90 245 6.0 16.0 0.00 0.00 0.00 36 936.5
20260505200651 90 217 5.0 16.0 0.00 0.00 0.00 37 936.5
20260505200551 90 240 5.0 13.0 0.00 0.00 0.00 36 936.5
20260505200452 90 198 5.0 13.0 0.00 0.00 0.00 34 936.5
20260505200352 90 235 5.0 13.0 0.00 0.00 0.00 38 936.5
20260505200330 90 221 6.0 13.0 0.00 0.00 0.00 37 936.5
20260505200151 90 252 6.0 13.0 0.00 0.00 0.00 38 936.6
20260505200051 90 238 6.0 13.0 0.00 0.00 0.00 38 936.5
20260505195952 90 224 6.0 13.0 0.00 0.00 0.00 37 936.6
20260505195852 90 183 6.0 12.0 0.00 0.00 0.00 33 936.6
20260505195752 90 194 6.0 17.0 0.00 0.00 0.00 36 936.6
20260505195650 90 214 6.0 17.0 0.00 0.00 0.00 37 936.6
20260505195549 90 201 6.0 17.0 0.00 0.00 0.00 36 936.6
20260505195450 90 200 6.0 17.0 0.00 0.00 0.00 35 936.6
20260505195349 90 228 7.0 17.0 0.00 0.00 0.00 39 936.7
20260505195249 89 204 7.0 17.0 0.00 0.00 0.00 40 936.6
20260505195150 89 203 7.0 17.0 0.00 0.00 0.00 37 936.6
20260505195049 89 171 7.0 17.0 0.00 0.00 0.00 38 936.6
20260505194949 89 190 7.0 17.0 0.00 0.00 0.00 37 936.7
20260505194849 89 216 7.0 17.0 0.00 0.00 0.00 40 936.7
20260505194749 89 186 6.0 13.0 0.00 0.00 0.00 38 936.7
20260505194649 89 187 6.0 13.0 0.00 0.00 0.00 37 936.7
20260505194550 89 246 6.0 12.0 0.00 0.00 0.00 37 936.7
20260505194450 89 232 6.0 12.0 0.00 0.00 0.00 37 936.6
20260505194349 89 226 6.0 12.0 0.00 0.00 0.00 37 936.6
20260505194248 89 186 5.0 12.0 0.00 0.00 0.00 39 936.6
20260505194149 89 219 5.0 12.0 0.00 0.00 0.00 39 936.6
20260505194049 89 182 5.0 12.0 0.00 0.00 0.00 37 936.6
20260505193950 89 192 5.0 12.0 0.00 0.00 0.00 38 936.6
20260505193845 89 195 5.0 12.0 0.00 0.00 0.00 40 936.7
20260505193745 89 223 5.0 12.0 0.00 0.00 0.00 38 936.7
20260505193645 89 228 5.0 12.0 0.00 0.00 0.00 37 936.7
20260505193545 89 254 5.0 12.0 0.00 0.00 0.00 39 936.8
20260505193446 89 243 5.0 12.0 0.00 0.00 0.00 38 936.8
20260505193346 89 242 6.0 12.0 0.00 0.00 0.00 40 936.8
20260505193246 89 239 6.0 12.0 0.00 0.00 0.00 42 936.8
20260505193146 88 245 6.0 13.0 0.00 0.00 0.00 41 936.8
20260505193045 88 255 7.0 13.0 0.00 0.00 0.00 43 936.8
20260505192945 88 222 7.0 13.0 0.00 0.00 0.00 39 936.8
20260505192844 88 192 7.0 15.0 0.00 0.00 0.00 40 936.8
20260505192745 88 233 8.0 15.0 0.00 0.00 0.00 39 936.7
20260505192646 88 186 8.0 15.0 0.00 0.00 0.00 39 936.8
20260505192544 89 202 8.0 15.0 0.00 0.00 0.00 39 936.8
20260505192445 89 248 8.0 15.0 0.00 0.00 0.00 41 936.8
20260505192345 89 213 7.0 15.0 0.00 0.00 0.00 39 936.8
20260505192325 89 186 7.0 15.0 0.00 0.00 0.00 41 936.9
20260505192144 89 217 7.0 15.0 0.00 0.00 0.00 40 936.9
20260505192046 88 185 7.0 15.0 0.00 0.00 0.00 39 936.9
20260505191941 88 203 6.0 15.0 0.00 0.00 0.00 39 936.8
20260505191843 88 217 6.0 13.0 0.00 0.00 0.00 40 936.8
20260505191827 88 234 5.0 13.0 0.00 0.00 0.00 41 936.8
20260505191642 88 189 5.0 13.0 0.00 0.00 0.00 39 936.8
20260505191542 88 193 5.0 11.0 0.00 0.00 0.00 43 936.9
20260505191441 88 248 5.0 11.0 0.00 0.00 0.00 44 936.9
20260505191342 89 244 5.0 11.0 0.00 0.00 0.00 42 936.9
20260505191241 89 182 5.0 12.0 0.00 0.00 0.00 41 937.0
20260505191141 89 244 5.0 12.0 0.00 0.00 0.00 43 937.1
20260505191041 88 225 6.0 12.0 0.00 0.00 0.00 44 937.1
20260505190942 88 232 5.0 12.0 0.00 0.00 0.00 46 937.1
20260505190841 88 213 6.0 12.0 0.00 0.00 0.00 44 937.1
20260505190741 88 217 6.0 17.0 0.00 0.00 0.00 43 937.1
20260505190641 88 225 7.0 17.0 0.00 0.00 0.00 44 937.1
20260505190541 88 194 6.0 17.0 0.00 0.00 0.00 44 937.1
20260505190443 88 207 6.0 17.0 0.00 0.00 0.00 43 937.1
20260505190341 88 213 6.0 17.0 0.00 0.00 0.00 41 937.1
20260505190242 87 187 6.0 17.0 0.00 0.00 0.00 44 937.1
20260505190142 87 190 6.0 17.0 0.00 0.00 0.00 43 937.1
20260505190036 87 229 5.0 17.0 0.00 0.00 0.00 43 937.2
20260505185937 87 219 5.0 17.0 0.00 0.00 0.00 45 937.1
20260505185837 87 257 5.0 16.0 0.00 0.00 0.00 43 937.1
20260505185736 87 188 5.0 12.0 0.00 0.00 0.00 45 937.2
20260505185637 87 194 5.0 10.0 0.00 0.00 0.00 45 937.1
20260505185537 86 252 5.0 10.0 0.00 0.00 0.00 46 937.1
20260505185437 86 237 5.0 10.0 0.00 0.00 0.00 44 937.1
20260505185337 86 213 5.0 10.0 0.00 0.00 0.00 47 937.1
20260505185237 86 229 5.0 10.0 0.00 0.00 0.00 47 937.1
20260505185137 86 236 5.0 10.0 0.00 0.00 0.00 45 937.1
20260505185036 86 212 6.0 10.0 0.00 0.00 0.00 45 937.1
20260505184937 86 208 5.0 10.0 0.00 0.00 0.00 49 937.2
20260505184838 86 200 5.0 10.0 0.00 0.00 0.00 49 937.2
20260505184737 86 236 5.0 10.0 0.00 0.00 0.00 48 937.2
20260505184636 86 201 5.0 10.0 0.00 0.00 0.00 47 937.2
20260505184538 87 250 6.0 10.0 0.00 0.00 0.00 46 937.2
20260505184438 87 214 6.0 10.0 0.00 0.00 0.00 46 937.2
20260505184337 87 206 5.0 10.0 0.00 0.00 0.00 48 937.2
20260505184238 87 246 5.0 10.0 0.00 0.00 0.00 47 937.2
20260505184133 87 246 5.0 10.0 0.00 0.00 0.00 45 937.2
20260505184034 87 225 6.0 11.0 0.00 0.00 0.00 46 937.2
20260505183930 87 231 6.0 13.0 0.00 0.00 0.00 47 937.2
20260505183832 87 214 6.0 13.0 0.00 0.00 0.00 46 937.2
20260505183732 87 211 6.0 14.0 0.00 0.00 0.00 49 937.3
20260505183631 86 178 6.0 14.0 0.00 0.00 0.00 49 937.3
20260505183532 86 190 6.0 14.0 0.00 0.00 0.00 51 937.3
20260505183431 86 228 6.0 14.0 0.00 0.00 0.00 48 937.4
20260505183330 86 193 7.0 14.0 0.00 0.00 0.00 49 937.4
20260505183232 86 200 7.0 14.0 0.00 0.00 0.00 45 937.4
20260505183132 86 254 7.0 14.0 0.00 0.00 0.00 47 937.4
20260505183031 86 255 6.0 14.0 0.00 0.00 0.00 46 937.4
20260505182926 86 216 6.0 14.0 0.00 0.00 0.00 49 937.4
20260505182834 85 221 6.0 14.0 0.00 0.00 0.00 48 937.5
20260505182815 86 248 6.0 14.0 0.00 0.00 0.00 46 937.4
20260505182626 86 245 6.0 14.0 0.00 0.00 0.00 48 937.5
20260505182525 86 209 6.0 15.0 0.00 0.00 0.00 49 937.5
20260505182420 86 249 6.0 15.0 0.00 0.00 0.00 48 937.5
20260505182325 86 250 7.0 15.0 0.00 0.00 0.00 47 937.6
20260505182309 86 248 7.0 15.0 0.00 0.00 0.00 51 937.6
20260505182119 86 237 8.0 15.0 0.00 0.00 0.00 49 937.6
20260505182019 86 232 7.0 15.0 0.00 0.00 0.00 48 937.7
20260505181913 86 207 8.0 15.0 0.00 0.00 0.00 48 937.7
20260505181814 86 261 8.0 15.0 0.00 0.00 0.00 50 937.7
20260505181714 86 228 8.0 15.0 0.00 0.00 0.00 50 937.7
20260505181613 85 213 8.0 15.0 0.00 0.00 0.00 47 937.7
20260505181514 86 244 7.0 14.0 0.00 0.00 0.00 50 937.7
20260505181409 85 234 7.0 14.0 0.00 0.00 0.00 51 937.8
20260505181309 85 261 7.0 14.0 0.00 0.00 0.00 49 937.8
20260505181209 85 246 6.0 13.0 0.00 0.00 0.00 50 937.7
20260505181109 85 232 6.0 12.0 0.00 0.00 0.00 53 937.7
20260505181007 85 232 6.0 12.0 0.00 0.00 0.00 48 937.7
20260505180904 85 246 6.0 12.0 0.00 0.00 0.00 50 937.7
20260505180801 85 255 6.0 12.0 0.00 0.00 0.00 51 937.7
20260505180702 84 246 6.0 12.0 0.00 0.00 0.00 51 937.8
20260505180602 84 196 6.0 11.0 0.00 0.00 0.00 51 937.7
20260505180501 84 238 6.0 12.0 0.00 0.00 0.00 51 937.8
20260505180356 84 200 6.0 12.0 0.00 0.00 0.00 50 937.7
20260505180256 84 254 6.0 12.0 0.00 0.00 0.00 51 937.8
20260505180156 84 257 6.0 12.0 0.00 0.00 0.00 51 937.8
20260505180056 84 234 5.0 12.0 0.00 0.00 0.00 50 937.9
20260505175955 84 222 5.0 12.0 0.00 0.00 0.00 52 937.9
20260505175850 84 279 6.0 12.0 0.00 0.00 0.00 52 937.9
20260505175749 84 221 6.0 12.0 0.00 0.00 0.00 50 937.9
20260505175650 84 204 6.0 12.0 0.00 0.00 0.00 51 937.9
20260505175549 84 244 6.0 15.0 0.00 0.00 0.00 53 937.9
20260505175449 84 210 6.0 15.0 0.00 0.00 0.00 52 937.9
20260505175344 84 233 6.0 15.0 0.00 0.00 0.00 53 937.9
20260505175244 84 234 6.0 15.0 0.00 0.00 0.00 55 937.9
20260505175144 84 208 6.0 15.0 0.00 0.00 0.00 54 937.9
20260505175043 84 265 7.0 15.0 0.00 0.00 0.00 57 937.9
20260505174943 84 267 6.0 15.0 0.00 0.00 0.00 53 937.9
20260505174838 84 241 6.0 15.0 0.00 0.00 0.00 55 937.9
20260505174739 83 279 7.0 15.0 0.00 0.00 0.00 53 938.0
20260505174639 83 250 6.0 15.0 0.00 0.00 0.00 55 937.9
20260505174540 83 240 6.0 13.0 0.00 0.00 0.00 54 937.9
20260505174437 83 226 6.0 13.0 0.00 0.00 0.00 55 937.9
20260505174332 83 252 6.0 13.0 0.00 0.00 0.00 53 937.9
20260505174231 83 257 6.0 13.0 0.00 0.00 0.00 54 937.9
20260505174131 83 227 6.0 13.0 0.00 0.00 0.00 55 937.9
20260505174031 83 220 6.0 12.0 0.00 0.00 0.00 54 937.9
20260505173932 83 244 6.0 12.0 0.00 0.00 0.00 56 937.9
20260505173827 83 265 6.0 12.0 0.00 0.00 0.00 56 937.9
20260505173728 83 245 5.0 12.0 0.00 0.00 0.00 55 937.9
20260505173626 83 235 5.0 12.0 0.00 0.00 0.00 55 937.9
20260505173528 83 182 5.0 12.0 0.00 0.00 0.00 55 937.9
20260505173425 83 223 5.0 12.0 0.00 0.00 0.00 58 937.9
20260505173322 83 220 5.0 12.0 0.00 0.00 0.00 56 937.8
20260505173219 83 207 5.0 11.0 0.00 0.00 0.00 55 937.8
20260505173120 82 248 5.0 11.0 0.00 0.00 0.00 56 937.8
20260505173018 82 222 5.0 9.0 0.00 0.00 0.00 60 937.8
20260505172919 82 176 5.0 9.0 0.00 0.00 0.00 58 937.9
20260505172814 82 229 6.0 18.0 0.00 0.00 0.00 56 937.9
20260505172714 82 184 6.0 18.0 0.00 0.00 0.00 58 937.8
20260505172614 82 232 7.0 18.0 0.00 0.00 0.00 58 937.8
20260505172513 82 239 7.0 18.0 0.00 0.00 0.00 56 937.8
20260505172413 82 211 7.0 18.0 0.00 0.00 0.00 56 937.8
20260505172307 82 193 6.0 18.0 0.00 0.00 0.00 57 937.8
20260505172207 82 187 6.0 18.0 0.00 0.00 0.00 56 937.8
20260505172108 82 178 6.0 18.0 0.00 0.00 0.00 57 937.8
20260505172007 82 224 7.0 18.0 0.00 0.00 0.00 56 937.8
20260505171907 82 223 6.0 18.0 0.00 0.00 0.00 56 937.8
20260505171800 82 208 6.0 12.0 0.00 0.00 0.00 56 937.8
20260505171701 82 208 5.0 12.0 0.00 0.00 0.00 59 937.8
20260505171602 82 250 5.0 12.0 0.00 0.00 0.00 61 937.8
20260505171501 82 239 5.0 12.0 0.00 0.00 0.00 58 937.9
20260505171401 82 210 5.0 12.0 0.00 0.00 0.00 56 937.9
20260505171258 82 254 5.0 12.0 0.00 0.00 0.00 57 937.9
20260505171157 82 219 5.0 12.0 0.00 0.00 0.00 58 937.9
20260505171056 82 215 6.0 12.0 0.00 0.00 0.00 57 937.8
20260505170958 82 184 5.0 12.0 0.00 0.00 0.00 56 937.8
20260505170856 82 192 5.0 12.0 0.00 0.00 0.00 56 937.9
20260505170753 82 233 6.0 12.0 0.00 0.00 0.00 57 937.8
20260505170653 82 192 6.0 12.0 0.00 0.00 0.00 58 937.8
20260505170550 82 244 6.0 12.0 0.00 0.00 0.00 59 937.8
20260505170452 82 241 6.0 12.0 0.00 0.00 0.00 57 937.9
20260505170349 82 236 6.0 12.0 0.00 0.00 0.00 58 937.8
20260505170245 81 234 6.0 12.0 0.00 0.00 0.00 59 937.9
20260505170146 81 223 6.0 12.0 0.00 0.00 0.00 59 937.8
20260505170044 81 235 5.0 12.0 0.00 0.00 0.00 59 937.8
20260505165946 81 240 6.0 13.0 0.00 0.00 0.00 57 937.8
20260505165843 81 215 6.0 13.0 0.00 0.00 0.00 60 937.8
20260505165739 81 215 6.0 13.0 0.00 0.00 0.00 60 937.9
20260505165637 81 225 6.0 13.0 0.00 0.00 0.00 58 937.9
20260505165537 81 227 6.0 13.0 0.00 0.00 0.00 60 937.9
20260505165436 81 236 7.0 13.0 0.00 0.00 0.00 59 937.9
20260505165337 81 231 7.0 13.0 0.00 0.00 0.00 61 937.9
20260505165232 81 234 7.0 13.0 0.00 0.00 0.00 59 937.9
20260505165137 81 235 7.0 13.0 0.00 0.00 0.00 61 937.9
20260505165120 81 230 7.0 13.0 0.00 0.00 0.00 59 937.9
20260505164930 81 244 6.0 11.0 0.00 0.00 0.00 59 937.9
20260505164831 81 215 6.0 11.0 0.00 0.00 0.00 59 937.9
20260505164726 81 213 6.0 11.0 0.00 0.00 0.00 61 937.9
20260505164625 81 217 6.0 13.0 0.00 0.00 0.00 61 937.9
20260505164525 81 229 6.0 15.0 0.00 0.00 0.00 61 938.0
20260505164424 81 250 6.0 15.0 0.00 0.00 0.00 63 938.0
20260505164325 81 223 6.0 15.0 0.00 0.00 0.00 61 938.0
20260505164218 81 243 6.0 15.0 0.00 0.00 0.00 62 938.0
20260505164118 80 220 6.0 15.0 0.00 0.00 0.00 62 938.0
20260505164020 80 252 7.0 15.0 0.00 0.00 0.00 62 938.0
20260505163919 80 219 6.0 15.0 0.00 0.00 0.00 61 937.9
20260505163819 80 243 6.0 15.0 0.00 0.00 0.00 62 938.0
20260505163715 80 161 6.0 15.0 0.00 0.00 0.00 62 938.0
20260505163616 80 197 6.0 15.0 0.00 0.00 0.00 63 938.0
20260505163514 80 209 6.0 13.0 0.00 0.00 0.00 64 938.0
20260505163415 80 193 6.0 12.0 0.00 0.00 0.00 63 938.0
20260505163313 80 198 6.0 12.0 0.00 0.00 0.00 64 938.0
20260505163208 80 200 5.0 12.0 0.00 0.00 0.00 66 938.1
20260505163107 80 238 5.0 12.0 0.00 0.00 0.00 65 938.0
20260505163008 80 216 5.0 12.0 0.00 0.00 0.00 65 938.1
20260505162907 80 224 5.0 12.0 0.00 0.00 0.00 68 938.0
20260505162807 79 222 4.0 12.0 0.00 0.00 0.00 69 938.0
20260505162703 79 254 4.0 10.0 0.00 0.00 0.00 68 938.0
20260505162603 79 227 4.0 10.0 0.00 0.00 0.00 69 938.0
20260505162502 79 242 4.0 10.0 0.00 0.00 0.00 69 938.1
20260505162404 78 194 4.0 10.0 0.00 0.00 0.00 70 938.1
20260505162301 78 257 4.0 9.0 0.00 0.00 0.00 73 938.1
20260505162158 78 218 4.0 9.0 0.00 0.00 0.00 74 938.1
20260505162056 78 246 4.0 9.0 0.00 0.00 0.00 72 938.1
20260505161955 78 246 4.0 10.0 0.00 0.00 0.00 72 938.1
20260505161856 78 207 5.0 10.0 0.00 0.00 0.00 72 938.1
20260505161755 78 201 5.0 10.0 0.00 0.00 0.00 72 938.0
20260505161649 78 186 5.0 11.0 0.00 0.00 0.00 71 938.1
20260505161549 77 222 5.0 11.0 0.00 0.00 0.00 72 938.1
20260505161449 77 229 5.0 11.0 0.00 0.00 0.00 71 938.0
20260505161348 77 232 5.0 11.0 0.00 0.00 0.00 72 938.1
20260505161309 77 208 6.0 16.0 0.00 0.00 0.00 71 938.0
20260505161144 77 173 6.0 16.0 0.00 0.00 0.00 72 938.0
20260505161050 77 250 6.0 16.0 0.00 0.00 0.00 71 938.0
20260505161033 77 257 6.0 16.0 0.00 0.00 0.00 72 938.1
20260505160844 77 212 6.0 16.0 0.00 0.00 0.00 71 938.1
20260505160743 77 225 6.0 16.0 0.00 0.00 0.00 70 938.0
20260505160636 77 173 5.0 16.0 0.00 0.00 0.00 72 938.0
20260505160537 77 232 5.0 16.0 0.00 0.00 0.00 70 938.1
20260505160437 77 248 5.0 16.0 0.00 0.00 0.00 73 938.1
20260505160336 77 205 6.0 16.0 0.00 0.00 0.00 72 938.1
20260505160237 77 243 5.0 13.0 0.00 0.00 0.00 72 938.1
20260505160132 77 251 5.0 13.0 0.00 0.00 0.00 72 938.1
20260505153301 76 195 7.0 14.0 0.00 0.00 0.00 74 937.7
20260505153201 76 225 7.0 14.0 0.00 0.00 0.00 73 937.6
20260505153056 76 200 7.0 17.0 0.00 0.00 0.00 75 937.6
20260505152954 76 203 7.0 17.0 0.00 0.00 0.00 74 937.5
20260505152856 76 199 7.0 17.0 0.00 0.00 0.00 74 937.5
20260505152755 76 203 7.0 17.0 0.00 0.00 0.00 75 937.5
20260505152655 76 186 7.0 17.0 0.00 0.00 0.00 75 937.5
20260505152550 75 192 7.0 17.0 0.00 0.00 0.00 75 937.6
20260505152451 75 250 7.0 17.0 0.00 0.00 0.00 76 937.6
20260505152350 75 269 7.0 17.0 0.00 0.00 0.00 74 937.6
20260505152251 75 226 7.0 17.0 0.00 0.00 0.00 74 937.7
20260505152149 75 203 8.0 17.0 0.00 0.00 0.00 75 937.7
20260505152046 75 229 8.0 15.0 0.00 0.00 0.00 76 937.7
20260505151944 75 237 8.0 13.0 0.00 0.00 0.00 76 937.6
20260505151843 75 240 8.0 13.0 0.00 0.00 0.00 76 937.7
20260505151743 75 191 8.0 13.0 0.00 0.00 0.00 75 937.6
20260505151644 75 263 8.0 13.0 0.00 0.00 0.00 76 937.6
20260505151538 75 216 8.0 17.0 0.00 0.00 0.00 75 937.6
20260505151437 75 223 9.0 17.0 0.00 0.00 0.00 75 937.5
20260505151338 75 243 9.0 17.0 0.00 0.00 0.00 75 937.5
20260505151238 75 188 9.0 19.0 0.00 0.00 0.00 76 937.5
20260505151137 75 229 9.0 19.0 0.00 0.00 0.00 76 937.5
20260505151031 75 273 9.0 19.0 0.00 0.00 0.00 77 937.4
20260505150931 75 265 10.0 19.0 0.00 0.00 0.00 76 937.4
20260505150832 74 218 10.0 19.0 0.00 0.00 0.00 77 937.3
20260505150732 74 213 10.0 19.0 0.00 0.00 0.00 77 937.3
20260505150631 74 252 10.0 19.0 0.00 0.00 0.00 76 937.3
20260505150525 74 207 10.0 19.0 0.00 0.00 0.00 77 937.4
20260505150426 74 206 10.0 19.0 0.00 0.00 0.00 77 937.3
20260505150326 74 211 9.0 19.0 0.00 0.00 0.00 77 937.3
20260505150225 74 204 9.0 16.0 0.00 0.00 0.00 77 937.3
20260505150125 74 206 9.0 16.0 0.00 0.00 0.00 77 937.2
20260505140618 72 194 8.0 16.0 0.00 0.00 0.00 82 937.2
20260505140520 72 174 8.0 15.0 0.00 0.00 0.00 82 937.2
20260505140413 72 222 8.0 19.0 0.00 0.00 0.00 82 937.2
20260505140312 72 233 8.0 19.0 0.00 0.00 0.00 83 937.2
20260505140214 71 227 8.0 19.0 0.00 0.00 0.00 83 937.2
20260505140113 71 200 8.0 19.0 0.00 0.00 0.00 83 937.2
20260505130302 67 0 9.0 16.0 0.00 0.00 0.00 87 936.8
20260505130202 67 180 9.0 17.0 0.00 0.00 0.00 87 936.8
20260505124948 67 188 8.0 15.0 0.00 0.00 0.00 88 936.5
20260505124849 66 197 8.0 15.0 0.00 0.00 0.00 88 936.5
20260505124743 66 181 8.0 15.0 0.00 0.00 0.00 88 936.5
20260505124650 66 221 8.0 15.0 0.00 0.00 0.00 88 936.6
20260505124633 66 229 8.0 15.0 0.00 0.00 0.00 88 936.6
20260505124442 66 201 8.0 13.0 0.00 0.00 0.00 88 936.6
20260505124343 66 190 8.0 13.0 0.00 0.00 0.00 88 936.6
20260505124236 66 217 8.0 13.0 0.00 0.00 0.00 88 936.6
20260505124136 66 192 8.0 13.0 0.00 0.00 0.00 89 936.5
20260505124037 66 184 8.0 12.0 0.00 0.00 0.00 89 936.5
20260505123937 66 204 7.0 12.0 0.00 0.00 0.00 89 936.5
20260505123837 66 215 7.0 12.0 0.00 0.00 0.00 89 936.6
20260505123732 66 207 7.0 12.0 0.00 0.00 0.00 89 936.6
20260505123632 66 198 7.0 12.0 0.00 0.00 0.00 89 936.6
20260505123532 66 249 7.0 12.0 0.00 0.00 0.00 89 936.5
20260505123434 66 194 7.0 12.0 0.00 0.00 0.00 89 936.5
20260505123331 66 211 7.0 12.0 0.00 0.00 0.00 89 936.6
20260505123227 66 192 7.0 11.0 0.00 0.00 0.00 89 936.6
20260505123125 66 193 7.0 11.0 0.00 0.00 0.00 89 936.6
20260505123026 65 243 7.0 11.0 0.00 0.00 0.00 89 936.6
20260505122925 65 212 7.0 11.0 0.00 0.00 0.00 89 936.6
20260505122825 65 244 7.0 11.0 0.00 0.00 0.00 89 936.5
20260505122723 65 196 6.0 11.0 0.00 0.00 0.00 89 936.5
20260505122637 65 0 6.0 11.0 0.00 0.00 0.00 89 936.5
20260505122619 65 263 6.0 11.0 0.00 0.00 0.00 89 936.5
20260505122422 65 187 6.0 11.0 0.00 0.00 0.00 89 936.5
20260505122322 65 191 6.0 11.0 0.00 0.00 0.00 89 936.5
20260505122222 65 215 6.0 11.0 0.00 0.00 0.00 89 936.5
20260505122123 65 210 6.0 11.0 0.00 0.00 0.00 89 936.5
20260505122023 65 209 6.0 11.0 0.00 0.00 0.00 89 936.5
20260505121922 65 180 6.0 11.0 0.00 0.00 0.00 89 936.4
20260505121822 65 202 6.0 11.0 0.00 0.00 0.00 89 936.4
20260505121722 65 217 6.0 11.0 0.00 0.00 0.00 89 936.5
20260505121623 65 0 6.0 11.0 0.00 0.00 0.00 89 936.4
20260505121522 65 170 6.0 11.0 0.00 0.00 0.00 90 936.4
20260505121420 65 258 6.0 11.0 0.00 0.00 0.00 90 936.4
20260505121320 65 202 6.0 11.0 0.00 0.00 0.00 90 936.4
20260505121220 65 206 6.0 11.0 0.00 0.00 0.00 90 936.4
20260505121121 65 200 6.0 11.0 0.00 0.00 0.00 90 936.3
20260505121017 65 230 6.0 11.0 0.00 0.00 0.00 90 936.3
20260505120916 65 232 6.0 11.0 0.00 0.00 0.00 90 936.3
20260505120817 65 226 6.0 11.0 0.00 0.00 0.00 90 936.3
20260505120716 65 188 6.0 12.0 0.00 0.00 0.00 90 936.2
20260505120617 65 193 6.0 12.0 0.00 0.00 0.00 90 936.3
20260505120414 65 206 6.0 12.0 0.00 0.00 0.00 89 936.3
20260505120314 65 211 6.0 12.0 0.00 0.00 0.00 89 936.3
20260505120214 65 189 6.0 12.0 0.00 0.00 0.00 89 936.2
20260505120114 65 198 6.0 12.0 0.00 0.00 0.00 89 936.2
20260505115915 65 193 6.0 13.0 0.00 0.00 0.00 89 936.3
20260505115815 65 196 6.0 13.0 0.00 0.00 0.00 89 936.3
20260505115714 65 193 6.0 13.0 0.00 0.00 0.00 89 936.3
20260505115614 65 202 7.0 13.0 0.00 0.00 0.00 89 936.3
20260505115517 65 174 7.0 13.0 0.00 0.00 0.00 89 936.2
20260505115415 65 209 7.0 13.0 0.00 0.00 0.00 89 936.2
20260505115315 65 222 7.0 13.0 0.00 0.00 0.00 89 936.2
20260505115212 65 186 7.0 13.0 0.00 0.00 0.00 89 936.2
20260505115112 65 183 7.0 13.0 0.00 0.00 0.00 89 936.2
20260505114912 65 196 7.0 12.0 0.00 0.00 0.00 89 936.2
20260505114813 65 191 7.0 12.0 0.00 0.00 0.00 89 936.2
20260505114712 65 202 7.0 13.0 0.00 0.00 0.00 89 936.3
20260505114612 65 210 7.0 13.0 0.00 0.00 0.00 88 936.3
20260505114412 65 219 7.0 13.0 0.00 0.00 0.00 89 936.2
20260505114312 65 194 7.0 13.0 0.00 0.00 0.00 88 936.1
20260505114212 65 230 7.0 13.0 0.00 0.00 0.00 88 936.0
20260505114113 65 214 7.0 13.0 0.00 0.00 0.00 88 936.0
20260505113908 65 201 8.0 13.0 0.00 0.00 0.00 88 936.1
20260505113808 65 207 7.0 14.0 0.00 0.00 0.00 88 936.0
20260505113709 65 200 7.0 14.0 0.00 0.00 0.00 88 936.0
20260505113608 65 209 7.0 14.0 0.00 0.00 0.00 88 936.0
20260505113408 65 217 8.0 14.0 0.00 0.00 0.00 88 936.0
20260505113308 65 183 8.0 14.0 0.00 0.00 0.00 88 936.0
20260505113208 65 202 8.0 14.0 0.00 0.00 0.00 88 936.0
20260505113130 65 206 8.0 14.0 0.00 0.00 0.00 88 936.0
20260505113114 65 175 8.0 14.0 0.00 0.00 0.00 88 936.0
20260505112909 66 191 8.0 14.0 0.00 0.00 0.00 88 935.9
20260505112808 66 199 8.0 14.0 0.00 0.00 0.00 88 936.0
20260505112709 66 209 8.0 14.0 0.00 0.00 0.00 88 936.0
20260505112608 66 194 8.0 14.0 0.00 0.00 0.00 88 936.0
20260505112408 66 200 8.0 14.0 0.00 0.00 0.00 88 936.0
20260505112308 66 230 8.0 14.0 0.00 0.00 0.00 88 936.1
20260505112208 66 189 8.0 14.0 0.00 0.00 0.00 88 936.0
20260505112109 66 189 8.0 14.0 0.00 0.00 0.00 88 936.1
20260505112004 66 209 8.0 14.0 0.00 0.00 0.00 88 936.1
20260505111905 66 226 8.0 14.0 0.00 0.00 0.00 88 936.1
20260505111805 66 190 8.0 14.0 0.00 0.00 0.00 88 936.0
20260505111704 66 187 8.0 13.0 0.00 0.00 0.00 88 936.0
20260505111604 66 192 8.0 13.0 0.00 0.00 0.00 88 936.0
20260505111504 66 198 7.0 13.0 0.00 0.00 0.00 88 936.0
20260505111404 66 188 8.0 12.0 0.00 0.00 0.00 88 936.0
20260505111305 66 167 8.0 12.0 0.00 0.00 0.00 88 936.0
20260505111205 66 0 8.0 12.0 0.00 0.00 0.00 88 936.0
20260505111104 66 188 8.0 12.0 0.00 0.00 0.00 88 935.9
20260505111005 66 205 8.0 12.0 0.00 0.00 0.00 88 936.0
20260505110904 66 182 8.0 12.0 0.00 0.00 0.00 88 936.0
20260505110804 66 180 7.0 12.0 0.00 0.00 0.00 88 936.1
20260505110704 66 198 7.0 12.0 0.00 0.00 0.00 88 936.1
20260505110605 66 215 7.0 12.0 0.00 0.00 0.00 88 936.1
20260505110503 66 207 7.0 12.0 0.00 0.00 0.00 88 936.1
20260505110405 66 196 7.0 12.0 0.00 0.00 0.00 88 936.1
20260505110348 66 197 7.0 12.0 0.00 0.00 0.00 88 936.0
20260505110205 66 191 7.0 12.0 0.00 0.00 0.00 88 936.0
20260505110119 66 208 7.0 12.0 0.00 0.00 0.00 88 936.0
20260505102152 66 198 6.0 10.0 0.00 0.00 0.00 86 936.1
20260505102053 66 192 6.0 11.0 0.00 0.00 0.00 86 936.1
20260505101952 66 197 6.0 11.0 0.00 0.00 0.00 86 936.0
20260505101853 66 192 6.0 11.0 0.00 0.00 0.00 86 936.0
20260505101750 66 188 6.0 11.0 0.00 0.00 0.00 86 936.0
20260505101650 66 186 6.0 11.0 0.00 0.00 0.00 86 936.0
20260505101549 66 202 6.0 11.0 0.00 0.00 0.00 86 936.0
20260505101450 66 178 7.0 11.0 0.00 0.00 0.00 86 936.0
20260505101351 66 187 7.0 11.0 0.00 0.00 0.00 86 936.1
20260505101249 66 190 7.0 11.0 0.00 0.00 0.00 86 936.1
20260505101150 66 198 7.0 11.0 0.00 0.00 0.00 86 936.1
20260505101044 66 170 7.0 10.0 0.00 0.00 0.00 86 936.1
20260505100945 66 196 7.0 10.0 0.00 0.00 0.00 86 936.1
20260505100844 66 180 7.0 10.0 0.00 0.00 0.00 86 936.1
20260505100743 66 188 7.0 10.0 0.00 0.00 0.00 86 936.1
20260505100644 66 173 7.0 12.0 0.00 0.00 0.00 86 936.1
20260505100539 67 217 7.0 12.0 0.00 0.00 0.00 86 936.1
20260505100438 67 192 7.0 12.0 0.00 0.00 0.00 86 936.2
20260505100338 67 181 7.0 12.0 0.00 0.00 0.00 86 936.1
20260505100239 67 186 7.0 12.0 0.00 0.00 0.00 86 936.1
20260505100138 67 190 7.0 12.0 0.00 0.00 0.00 86 936.1
20260505100032 67 219 7.0 12.0 0.00 0.00 0.00 86 936.1
20260505095933 67 188 7.0 12.0 0.00 0.00 0.00 86 936.1
20260505095833 67 183 7.0 12.0 0.00 0.00 0.00 86 936.1
20260505095732 67 182 7.0 12.0 0.00 0.00 0.00 85 936.0
20260505095632 67 201 7.0 11.0 0.00 0.00 0.00 85 936.0
20260505095527 67 195 7.0 11.0 0.00 0.00 0.00 85 936.1
20260505095425 67 207 7.0 11.0 0.00 0.00 0.00 85 936.1
20260505095327 67 187 7.0 11.0 0.00 0.00 0.00 85 936.1
20260505095226 67 178 7.0 11.0 0.00 0.00 0.00 85 936.1
20260505095126 67 198 7.0 11.0 0.00 0.00 0.00 85 936.1
20260505095055 67 177 7.0 11.0 0.00 0.00 0.00 85 936.1
20260505094921 67 196 6.0 11.0 0.00 0.00 0.00 85 936.1
20260505094821 67 225 7.0 11.0 0.00 0.00 0.00 85 936.1
20260505094720 67 175 7.0 11.0 0.00 0.00 0.00 85 936.0
20260505094621 67 191 7.0 11.0 0.00 0.00 0.00 85 936.1
20260505094550 67 202 7.0 11.0 0.00 0.00 0.00 85 936.0
20260505094414 67 204 7.0 11.0 0.00 0.00 0.00 85 936.0
20260505094325 67 188 7.0 11.0 0.00 0.00 0.00 85 936.0
20260505094309 67 211 6.0 11.0 0.00 0.00 0.00 85 936.0
20260505094114 67 180 6.0 11.0 0.00 0.00 0.00 85 936.0
20260505094043 67 187 7.0 11.0 0.00 0.00 0.00 85 935.9
20260505093909 67 196 7.0 11.0 0.00 0.00 0.00 85 935.9
20260505093810 67 192 7.0 10.0 0.00 0.00 0.00 85 935.9
20260505093707 67 182 7.0 10.0 0.00 0.00 0.00 85 935.9
20260505093608 67 170 7.0 11.0 0.00 0.00 0.00 85 935.9
20260505093503 67 173 7.0 11.0 0.00 0.00 0.00 84 936.0
20260505093402 67 194 7.0 11.0 0.00 0.00 0.00 84 936.0
20260505093303 67 177 7.0 11.0 0.00 0.00 0.00 84 936.0
20260505093201 67 238 7.0 11.0 0.00 0.00 0.00 84 936.0
20260505093103 67 205 7.0 11.0 0.00 0.00 0.00 84 935.9
20260505092956 67 190 7.0 11.0 0.00 0.00 0.00 84 935.9
20260505092857 67 0 7.0 11.0 0.00 0.00 0.00 84 935.9
20260505092757 67 200 7.0 11.0 0.00 0.00 0.00 84 935.9
20260505092656 67 235 7.0 11.0 0.00 0.00 0.00 84 935.9
20260505092556 67 194 7.0 12.0 0.00 0.00 0.00 84 935.9
20260505092452 67 165 7.0 13.0 0.00 0.00 0.00 84 935.9
20260505092352 67 202 7.0 13.0 0.00 0.00 0.00 84 935.9
20260505092252 67 194 7.0 13.0 0.00 0.00 0.00 84 935.8
20260505092152 68 200 7.0 13.0 0.00 0.00 0.00 84 935.9
20260505092051 68 190 7.0 13.0 0.00 0.00 0.00 84 935.9
20260505091947 68 216 7.0 13.0 0.00 0.00 0.00 84 935.9
20260505091844 68 169 7.0 13.0 0.00 0.00 0.00 83 936.0
20260505091744 68 196 7.0 13.0 0.00 0.00 0.00 83 936.0
20260505091644 68 0 7.0 13.0 0.00 0.00 0.00 83 936.0
20260505091544 68 211 7.0 12.0 0.00 0.00 0.00 83 936.1
20260505091442 68 190 6.0 12.0 0.00 0.00 0.00 83 936.1